GW0047 Weather Reports


time (UTC)temp
C
wind
direction
speed
KPH
gust
KPH
rain 1hr
cm
rain 24hr
cm
rain mn
cm
humidity
%
barometer
mb
20260506192750 16 208 4.8 12.9 0.00 0.69 0.69 94 1007.8
20260506192248 16 214 4.8 12.9 0.00 0.69 0.69 94 1007.7
20260506191748 16 196 4.8 12.9 0.03 0.69 0.69 94 1007.8
20260506191638 16 211 4.8 12.9 0.03 0.69 0.69 94 1007.8
20260506190921 16 222 4.8 12.9 0.03 0.69 0.69 94 1007.9
20260506185743 16 225 4.8 11.3 0.05 0.69 0.69 94 1008.1
20260506185249 16 232 4.8 11.3 0.05 0.69 0.69 94 1008.2
20260506184741 16 243 4.8 11.3 0.08 0.69 0.69 94 1008.2
20260506184239 16 202 4.8 9.7 0.10 0.69 0.69 94 1008.3
20260506183737 16 188 4.8 9.7 0.10 0.69 0.69 94 1008.4
20260506183441 16 219 4.8 12.9 0.10 0.69 0.69 94 1008.4
20260506182222 16 143 4.8 12.9 0.15 0.69 0.69 94 1008.5
20260506181723 16 215 4.8 12.9 0.15 0.66 0.66 94 1008.3
20260506181215 16 225 4.8 12.9 0.15 0.66 0.66 94 1008.4
20260506181038 16 225 3.2 12.9 0.18 0.66 0.66 93 1008.4
20260506180216 16 209 3.2 9.7 0.18 0.64 0.64 93 1008.5
20260506180045 16 252 4.8 9.7 0.20 0.64 0.64 93 1008.5
20260506175212 16 179 4.8 9.7 0.20 0.64 0.61 93 1008.6
20260506174709 16 221 4.8 19.3 0.18 0.61 0.61 93 1008.5
20260506174207 16 192 6.4 19.3 0.18 0.58 0.58 93 1008.5
20260506173707 16 216 6.4 19.3 0.18 0.58 0.58 92 1008.5
20260506173206 16 254 8.0 19.3 0.18 0.58 0.56 92 1008.4
20260506172707 16 227 8.0 22.5 0.15 0.56 0.56 92 1008.4
20260506172202 16 174 8.0 22.5 0.13 0.53 0.53 92 1008.5
20260506171701 16 172 6.4 19.3 0.10 0.51 0.51 92 1008.6
20260506171202 16 155 8.0 17.7 0.10 0.51 0.51 92 1008.6
20260506170705 16 219 8.0 20.9 0.10 0.48 0.48 91 1008.7
20260506170202 16 187 6.4 20.9 0.08 0.46 0.46 91 1008.7
20260506170049 16 230 8.0 24.1 0.05 0.43 0.43 91 1008.8
20260506165202 16 198 8.0 24.1 0.08 0.43 0.43 91 1008.7
20260506164705 16 203 6.4 19.3 0.10 0.43 0.43 91 1008.8
20260506164202 16 168 6.4 19.3 0.10 0.41 0.41 91 1008.8
20260506163702 16 182 8.0 24.1 0.13 0.41 0.41 91 1008.7
20260506163551 16 216 11.3 24.1 0.15 0.41 0.41 90 1008.8
20260506162701 16 211 9.7 24.1 0.18 0.41 0.41 91 1008.7
20260506162202 16 194 8.0 24.1 0.20 0.41 0.41 91 1008.6
20260506162041 16 205 9.7 24.1 0.23 0.41 0.41 91 1008.5
20260506161201 16 164 8.0 24.1 0.23 0.41 0.38 91 1008.5
20260506160704 16 208 8.0 20.9 0.23 0.38 0.38 92 1008.6
20260506160202 16 217 8.0 22.5 0.23 0.38 0.38 91 1008.7
20260506155703 16 177 8.0 22.5 0.23 0.38 0.36 91 1008.9
20260506155202 16 168 8.0 19.3 0.20 0.36 0.36 91 1009.2
20260506154702 16 215 8.0 19.3 0.20 0.33 0.33 91 1009.4
20260506154202 16 157 8.0 19.3 0.20 0.30 0.30 90 1009.6
20260506153701 16 195 8.0 19.3 0.18 0.28 0.28 90 1009.7
20260506153354 16 155 9.7 20.9 0.18 0.25 0.25 90 1009.6
20260506152631 16 160 9.7 24.1 0.18 0.20 0.20 89 1009.6
20260506151705 16 238 9.7 24.1 0.18 0.18 0.18 89 1009.9
20260506151205 17 184 8.0 24.1 0.18 0.18 0.18 89 1009.7
20260506151124 17 125 4.8 20.9 0.15 0.15 0.15 89 1009.6
20260506150201 17 226 6.4 17.7 0.15 0.15 0.15 89 1009.4
20260506145705 17 147 6.4 17.7 0.15 0.15 0.15 89 1009.4
20260506145203 17 166 4.8 12.9 0.15 0.15 0.13 89 1009.5
20260506144702 17 196 4.8 12.9 0.13 0.13 0.13 88 1009.6
20260506144349 17 150 4.8 12.9 0.10 0.10 0.10 87 1009.3
20260506143632 17 213 4.8 9.7 0.08 0.08 0.08 86 1009.5
20260506142701 17 191 4.8 19.3 0.05 0.05 0.05 86 1009.7
20260506142201 17 148 6.4 19.3 0.03 0.03 0.03 85 1009.8
20260506141701 17 163 8.0 22.5 0.00 0.00 0.00 84 1009.6
20260506141202 17 150 8.0 22.5 0.00 0.00 0.00 83 1009.6
20260506140703 17 228 6.4 20.9 0.00 0.00 0.00 83 1009.6
20260506140156 17 239 6.4 19.3 0.00 0.00 0.00 83 1009.6
20260506135652 18 147 6.4 14.5 0.00 0.00 0.00 84 1009.3
20260506135647 17 152 6.4 14.5 0.00 0.00 0.00 83 1009.4
20260506134634 17 177 6.4 14.5 0.00 0.00 0.00 84 1009.5
20260506134136 17 191 6.4 16.1 0.00 0.00 0.00 83 1009.5
20260506133637 17 186 6.4 16.1 0.00 0.00 0.00 83 1009.7
20260506133132 18 183 6.4 16.1 0.00 0.00 0.00 82 1009.7
20260506132634 18 194 8.0 16.1 0.00 0.00 0.00 82 1009.7
20260506132136 18 212 8.0 17.7 0.00 0.00 0.00 81 1009.7
20260506131633 18 149 8.0 17.7 0.00 0.00 0.00 81 1009.7
20260506131132 18 202 6.4 14.5 0.00 0.00 0.00 81 1009.7
20260506130633 18 170 4.8 16.1 0.00 0.00 0.00 81 1009.7
20260506130603 18 152 6.4 19.3 0.00 0.00 0.00 81 1009.8
20260506125634 18 197 8.0 19.3 0.00 0.00 0.00 79 1009.8
20260506125133 18 178 8.0 19.3 0.00 0.00 0.00 78 1009.8
20260506124634 18 216 9.7 25.7 0.00 0.00 0.00 77 1009.7
20260506124136 18 219 9.7 25.7 0.00 0.00 0.00 76 1009.6
20260506124101 18 211 9.7 25.7 0.00 0.00 0.00 76 1009.5
20260506123135 18 217 8.0 25.7 0.00 0.00 0.00 76 1009.6
20260506122637 18 171 8.0 19.3 0.00 0.00 0.00 76 1009.6
20260506122132 18 196 9.7 19.3 0.00 0.00 0.00 76 1009.4
20260506121636 18 197 8.0 20.9 0.00 0.00 0.00 76 1009.2
20260506121132 18 159 9.7 22.5 0.00 0.00 0.00 76 1009.2
20260506120632 18 183 8.0 22.5 0.00 0.00 0.00 76 1009.5
20260506120130 18 168 6.4 20.9 0.00 0.00 0.00 76 1009.4
20260506115630 18 207 8.0 19.3 0.00 0.00 0.00 75 1009.4
20260506115518 18 248 8.0 16.1 0.00 0.00 0.00 75 1009.4
20260506114634 18 213 6.4 16.1 0.00 0.00 0.00 75 1009.3
20260506114134 18 172 6.4 16.1 0.00 0.00 0.00 76 1009.3
20260506113637 18 188 6.4 14.5 0.00 0.00 0.00 75 1009.3
20260506113134 18 181 8.0 16.1 0.00 0.00 0.00 75 1009.4
20260506112630 18 158 6.4 16.1 0.00 0.00 0.00 75 1009.4
20260506112130 18 159 6.4 22.5 0.00 0.00 0.00 75 1009.4
20260506111634 18 184 8.0 22.5 0.00 0.00 0.00 75 1009.4
20260506111553 18 219 9.7 22.5 0.00 0.00 0.00 75 1009.4
20260506111058 18 188 9.7 25.7 0.00 0.00 0.00 75 1009.3
20260506110312 18 168 8.0 25.7 0.00 0.00 0.00 75 1009.2
20260506105131 18 138 6.4 22.5 0.00 0.00 0.00 75 1008.9
20260506104629 18 171 6.4 17.7 0.00 0.00 0.00 75 1009.0
20260506104130 18 169 6.4 17.7 0.00 0.00 0.00 75 1008.9
20260506103630 18 212 8.0 17.7 0.00 0.00 0.00 75 1008.8
20260506103605 18 201 9.7 17.7 0.00 0.00 0.00 75 1008.7
20260506102629 18 151 8.0 17.7 0.00 0.00 0.00 75 1008.7
20260506102130 18 123 8.0 16.1 0.00 0.00 0.00 75 1008.7
20260506102032 18 168 8.0 17.7 0.00 0.00 0.00 75 1008.8
20260506101129 18 136 6.4 17.7 0.00 0.00 0.00 75 1008.8
20260506100830 18 198 6.4 16.1 0.00 0.00 0.00 75 1008.9
20260506095625 18 177 4.8 16.1 0.00 0.00 0.00 75 1008.9
20260506095117 18 161 6.4 17.7 0.00 0.00 0.00 75 1009.0
20260506094614 18 186 8.0 19.3 0.00 0.00 0.00 74 1008.9
20260506094117 18 178 6.4 19.3 0.00 0.00 0.00 74 1008.9
20260506093612 19 200 8.0 20.9 0.00 0.00 0.00 74 1008.8
20260506093532 19 190 8.0 20.9 0.00 0.00 0.00 73 1008.8
20260506092614 19 208 8.0 20.9 0.00 0.00 0.00 73 1008.9
20260506092500 19 204 8.0 20.9 0.00 0.00 0.00 73 1008.9
20260506091610 19 209 6.4 19.3 0.00 0.00 0.00 73 1008.9
20260506091110 19 198 6.4 19.3 0.00 0.00 0.00 72 1008.8
20260506091022 19 185 8.0 20.9 0.00 0.00 0.00 72 1008.9
20260506090109 19 207 8.0 20.9 0.00 0.00 0.00 72 1008.9
20260506085608 19 184 6.4 17.7 0.00 0.00 0.00 71 1009.0
20260506085107 19 227 8.0 19.3 0.00 0.00 0.00 71 1009.0
20260506084604 19 170 8.0 19.3 0.00 0.00 0.00 71 1009.1
20260506084105 19 197 8.0 20.9 0.00 0.08 0.00 71 1009.1
20260506083604 19 147 9.7 20.9 0.00 0.13 0.00 70 1009.1
20260506083258 19 175 8.0 20.9 0.00 0.15 0.00 70 1009.1
20260506082102 19 171 9.7 22.5 0.00 0.15 0.00 69 1009.1
20260506082028 19 199 9.7 19.3 0.00 0.15 0.00 69 1009.1
20260506081059 19 161 8.0 17.7 0.00 0.15 0.00 69 1009.2
20260506080555 19 275 8.0 16.1 0.00 0.15 0.00 69 1009.1
20260506073030 20 182 8.0 20.9 0.00 0.15 0.00 66 1009.2
20260506072529 20 265 6.4 16.1 0.00 0.15 0.00 65 1009.3
20260506072446 20 202 8.0 16.1 0.00 0.15 0.00 65 1009.2
20260506071530 20 154 8.0 19.3 0.00 0.15 0.00 65 1009.3
20260506071030 20 230 8.0 19.3 0.00 0.15 0.00 64 1009.3
20260506070532 20 229 8.0 19.3 0.00 0.15 0.00 64 1009.3
20260506070227 20 202 8.0 19.3 0.00 0.15 0.00 64 1009.3
20260506062029 20 196 6.4 17.7 0.00 0.15 0.00 62 1009.5
20260506061533 20 284 8.0 20.9 0.00 0.15 0.00 62 1009.6
20260506061033 20 202 8.0 20.9 0.00 0.15 0.00 61 1009.6
20260506060529 20 163 8.0 19.3 0.00 0.15 0.00 61 1009.7
20260506060456 21 175 9.7 27.4 0.00 0.15 0.00 61 1009.8
20260506051030 21 214 11.3 25.7 0.00 0.15 0.00 59 1009.9
20260506050552 21 212 9.7 27.4 0.00 0.15 0.00 59 1010.0
20260506045040 21 187 8.0 27.4 0.00 0.15 0.00 59 1010.0
20260506044547 21 163 6.4 22.5 0.00 0.15 0.00 59 1010.0
20260506044035 21 135 8.0 20.9 0.00 0.15 0.00 59 1010.1
20260506043535 21 146 9.7 22.5 0.00 0.15 0.00 59 1010.0
20260506043451 21 163 9.7 22.5 0.00 0.15 0.00 58 1010.0
20260506042530 21 195 8.0 30.6 0.00 0.15 0.00 58 1010.0
20260506042032 21 198 8.0 30.6 0.00 0.15 0.00 58 1010.2
20260506041529 21 146 9.7 30.6 0.00 0.15 0.00 58 1010.1
20260506041045 21 142 9.7 30.6 0.00 0.15 0.00 57 1010.0
20260506040809 21 154 6.4 19.3 0.00 0.15 0.00 57 1010.0
20260506040029 21 210 6.4 22.5 0.00 0.15 0.00 57 1010.0
20260506035733 21 200 8.0 22.5 0.00 0.15 0.15 56 1010.1
20260506034529 21 192 9.7 24.1 0.00 0.15 0.15 56 1010.2
20260506034411 21 162 6.4 19.3 0.00 0.15 0.15 56 1010.1
20260506033913 21 215 6.4 22.5 0.00 0.15 0.15 56 1010.1
20260506033030 21 206 6.4 22.5 0.00 0.15 0.15 55 1010.0
20260506032536 21 143 3.2 17.7 0.00 0.15 0.15 55 1010.1
20260506032029 21 238 3.2 16.1 0.00 0.15 0.15 54 1010.1
20260506031529 21 166 4.8 16.1 0.00 0.15 0.15 54 1010.0
20260506031029 22 158 4.8 19.3 0.00 0.15 0.15 54 1010.1
20260506030535 22 170 4.8 19.3 0.00 0.15 0.15 53 1010.0
20260506030457 22 200 6.4 20.9 0.00 0.15 0.15 53 1010.1
20260506030213 22 200 6.4 20.9 0.00 0.15 0.15 53 1010.1
20260506025031 22 148 8.0 19.3 0.00 0.15 0.15 52 1009.9
20260506024533 22 199 9.7 19.3 0.00 0.15 0.15 52 1009.8
20260506024031 22 124 8.0 24.1 0.00 0.15 0.15 51 1009.9
20260506023530 22 178 8.0 24.1 0.00 0.15 0.15 51 1010.0
20260506023035 22 134 8.0 24.1 0.00 0.15 0.15 51 1010.1
20260506022530 22 139 8.0 24.1 0.00 0.15 0.15 51 1010.0
20260506022034 22 127 6.4 17.7 0.00 0.15 0.15 50 1010.1
20260506021530 23 153 8.0 17.7 0.00 0.15 0.15 50 1010.1
20260506021216 23 190 8.0 17.7 0.00 0.15 0.15 49 1010.0
20260506020457 23 180 8.0 19.3 0.00 0.15 0.15 49 1010.1
20260506015032 23 188 8.0 19.3 0.00 0.15 0.15 48 1009.9
20260506014531 23 176 6.4 29.0 0.00 0.15 0.15 48 1009.9
20260506014453 23 142 6.4 29.0 0.00 0.15 0.15 47 1009.8
20260506013531 23 180 8.0 32.2 0.00 0.15 0.15 47 1009.9
20260506013030 23 190 9.7 32.2 0.00 0.15 0.15 46 1009.9
20260506012530 23 223 8.0 20.9 0.00 0.15 0.15 46 1009.8
20260506012029 23 182 8.0 20.9 0.00 0.15 0.15 46 1009.7
20260506011530 23 189 8.0 19.3 0.00 0.15 0.15 46 1009.7
20260506011031 23 258 6.4 16.1 0.00 0.15 0.15 46 1009.5
20260506010529 24 202 6.4 16.1 0.00 0.15 0.15 46 1009.4
20260506010029 24 148 6.4 24.1 0.00 0.15 0.15 45 1009.5
20260506005532 24 164 8.0 24.1 0.00 0.15 0.15 45 1009.3
20260506005030 24 156 9.7 24.1 0.00 0.15 0.15 44 1009.3
20260506004532 24 153 9.7 24.1 0.00 0.15 0.15 44 1009.4
20260506004030 24 213 8.0 20.9 0.00 0.15 0.15 44 1009.3
20260506003535 24 179 9.7 17.7 0.00 0.15 0.15 44 1009.2
20260506003030 25 194 9.7 27.4 0.00 0.15 0.15 43 1009.1
20260506002530 25 169 8.0 27.4 0.00 0.15 0.15 44 1009.1
20260506002029 25 146 9.7 27.4 0.00 0.15 0.15 44 1009.0
20260506001953 25 223 9.7 27.4 0.00 0.15 0.15 44 1008.8
20260506001030 25 194 8.0 25.7 0.00 0.15 0.15 44 1008.9
20260506000530 25 112 8.0 25.7 0.00 0.15 0.15 44 1008.8
20260506000030 25 186 9.7 27.4 0.00 0.15 0.15 44 1008.8
20260505235529 25 168 9.7 27.4 0.00 0.15 0.15 44 1009.0
20260505235034 25 205 9.7 27.4 0.00 0.15 0.15 44 1008.7
20260505234725 25 188 9.7 27.4 0.00 0.15 0.15 43 1008.7
20260505233528 25 196 11.3 27.4 0.00 0.15 0.15 42 1008.6
20260505233022 25 184 12.9 29.0 0.00 0.15 0.15 41 1008.6
20260505232513 25 234 12.9 29.0 0.00 0.15 0.15 41 1008.5
20260505232005 25 175 11.3 29.0 0.00 0.15 0.15 41 1008.4
20260505231505 25 221 12.9 29.0 0.00 0.15 0.15 41 1008.5
20260505231008 25 259 12.9 30.6 0.00 0.15 0.15 42 1008.4
20260505230504 26 188 11.3 30.6 0.00 0.15 0.15 42 1008.5
20260505230004 26 169 12.9 30.6 0.00 0.15 0.15 41 1008.4
20260505225504 26 182 12.9 30.6 0.00 0.15 0.15 41 1008.5
20260505225003 26 155 11.3 29.0 0.00 0.15 0.15 40 1008.3
20260505224503 26 208 11.3 29.0 0.00 0.15 0.15 40 1008.4
20260505224432 26 205 11.3 27.4 0.00 0.15 0.15 40 1008.3
20260505223503 26 190 11.3 30.6 0.00 0.15 0.15 41 1008.4
20260505223007 26 123 11.3 30.6 0.00 0.15 0.15 40 1008.2
20260505222508 26 225 12.9 32.2 0.00 0.15 0.15 41 1008.3
20260505222007 26 176 14.5 32.2 0.00 0.15 0.15 40 1008.2
20260505221939 26 225 14.5 30.6 0.00 0.15 0.15 41 1007.9
20260505221006 26 145 14.5 30.6 0.00 0.15 0.15 41 1008.0
20260505220501 26 194 12.9 30.6 0.00 0.15 0.15 41 1008.1
20260505220008 26 173 11.3 25.7 0.00 0.15 0.15 41 1008.1
20260505215502 27 163 9.7 29.0 0.00 0.15 0.15 41 1008.1
20260505215001 27 169 11.3 29.0 0.00 0.15 0.15 41 1008.3
20260505214730 26 152 14.5 29.0 0.00 0.15 0.15 42 1008.3
20260505214004 26 178 14.5 33.8 0.00 0.15 0.15 41 1008.2
20260505213513 27 150 12.9 33.8 0.00 0.15 0.15 40 1008.3
20260505213434 27 154 12.9 30.6 0.00 0.15 0.15 41 1008.3
20260505212501 27 156 12.9 33.8 0.00 0.15 0.15 41 1008.3
20260505212433 27 121 12.9 33.8 0.00 0.15 0.15 41 1008.3
20260505211506 26 157 14.5 37.0 0.00 0.15 0.15 41 1008.2
20260505211005 26 266 14.5 37.0 0.00 0.15 0.15 40 1008.1
20260505210504 27 197 12.9 32.2 0.00 0.15 0.15 40 1008.0
20260505210002 27 200 12.9 29.0 0.00 0.15 0.15 41 1008.0
20260505205928 27 140 14.5 32.2 0.00 0.15 0.15 42 1008.1
20260505205430 27 185 14.5 32.2 0.00 0.15 0.15 40 1008.1
20260505204502 27 184 12.9 29.0 0.00 0.15 0.15 40 1008.1
20260505204001 27 178 11.3 27.4 0.00 0.15 0.15 39 1008.1
20260505203926 27 202 12.9 27.4 0.00 0.15 0.15 39 1007.9
20260505203005 27 135 14.5 35.4 0.00 0.15 0.15 38 1007.9
20260505202501 27 167 12.9 35.4 0.00 0.15 0.15 38 1008.1
20260505202408 27 148 12.9 29.0 0.00 0.15 0.15 39 1008.0
20260505201506 27 188 11.3 30.6 0.00 0.15 0.15 38 1008.1
20260505201005 27 242 11.3 30.6 0.00 0.15 0.15 39 1008.2
20260505200506 27 217 11.3 32.2 0.00 0.15 0.15 39 1008.1
20260505200006 27 195 11.3 32.2 0.00 0.15 0.15 40 1008.2
20260505195501 27 194 12.9 32.2 0.00 0.15 0.15 40 1008.3
20260505195153 27 213 16.1 32.2 0.00 0.15 0.15 40 1008.2
20260505194428 27 173 12.9 27.4 0.00 0.15 0.15 40 1008.3
20260505193508 27 223 12.9 32.2 0.00 0.15 0.15 41 1008.3